Time,TemperatureF,DewpointF,PressureIn,WindDirection,WindDirectionDegrees,WindSpeedMPH,WindSpeedGustMPH,Humidity,HourlyPrecipIn,Conditions,Clouds,dailyrainin,SoftwareType,DateUTC
2013-02-27 00:01:00,15.0,11.0,30.33,NNE,20,0.0,1.0,85,0.00,,,0.00,,2013-02-27 04:01:00,
2013-02-27 00:11:00,15.0,11.0,30.33,NNE,20,0.0,1.0,85,0.00,,,0.00,,2013-02-27 04:11:00,
2013-02-27 00:22:00,14.0,11.0,30.32,NNE,20,0.0,0.0,86,0.00,,,0.00,,2013-02-27 04:22:00,
2013-02-27 00:32:00,14.0,11.0,30.32,NNE,20,1.0,2.0,86,0.00,,,0.00,,2013-02-27 04:32:00,
2013-02-27 00:42:00,14.0,11.0,30.32,NNE,20,1.0,2.0,86,0.00,,,0.00,,2013-02-27 04:42:00,
2013-02-27 00:52:00,14.0,11.0,30.32,NNE,20,1.0,2.0,87,0.00,,,0.00,,2013-02-27 04:52:00,
2013-02-27 01:02:00,14.0,11.0,30.31,NNE,20,1.0,2.0,88,0.00,,,0.00,,2013-02-27 05:02:00,
2013-02-27 01:12:00,14.0,11.0,30.31,NNE,20,1.0,2.0,88,0.00,,,0.00,,2013-02-27 05:12:00,
2013-02-27 01:22:00,14.0,11.0,30.31,NNE,20,0.0,1.0,87,0.00,,,0.00,,2013-02-27 05:22:00,
2013-02-27 01:32:00,13.0,10.0,30.31,NNE,20,0.0,1.0,87,0.00,,,0.00,,2013-02-27 05:32:00,
2013-02-27 01:42:00,13.0,10.0,30.31,NNE,20,0.0,1.0,87,0.00,,,0.00,,2013-02-27 05:42:00,
2013-02-27 01:52:00,12.0,9.0,30.30,NNE,20,0.0,1.0,86,0.00,,,0.00,,2013-02-27 05:52:00,
2013-02-27 02:02:00,13.0,10.0,30.30,NNE,20,0.0,0.0,87,0.00,,,0.00,,2013-02-27 06:02:00,
2013-02-27 02:11:00,13.0,10.0,30.30,NNE,20,0.0,0.0,87,0.00,,,0.00,,2013-02-27 06:11:00,
2013-02-27 02:21:00,13.0,10.0,30.30,NNE,20,0.0,2.0,87,0.00,,,0.00,,2013-02-27 06:21:00,
2013-02-27 02:33:00,12.0,9.0,30.29,NNE,20,0.0,0.0,87,0.00,,,0.00,,2013-02-27 06:33:00,
2013-02-27 02:42:00,12.0,9.0,30.29,NNE,20,0.0,0.0,87,0.00,,,0.00,,2013-02-27 06:42:00,
2013-02-27 02:52:00,12.0,9.0,30.29,NNE,20,0.0,0.0,87,0.00,,,0.00,,2013-02-27 06:52:00,
2013-02-27 03:01:00,12.0,9.0,30.29,NNE,20,0.0,0.0,87,0.00,,,0.00,,2013-02-27 07:01:00,
2013-02-27 03:12:00,12.0,9.0,30.29,NNE,20,0.0,0.0,87,0.00,,,0.00,,2013-02-27 07:12:00,
2013-02-27 03:21:00,12.0,9.0,30.29,NNE,20,0.0,0.0,87,0.00,,,0.00,,2013-02-27 07:21:00,
2013-02-27 03:32:00,11.0,8.0,30.28,NNE,20,0.0,0.0,86,0.00,,,0.00,,2013-02-27 07:32:00,
2013-02-27 03:42:00,11.0,8.0,30.28,NNE,20,0.0,0.0,86,0.00,,,0.00,,2013-02-27 07:42:00,
2013-02-27 03:52:00,11.0,8.0,30.28,NNE,20,0.0,0.0,86,0.00,,,0.00,,2013-02-27 07:52:00,
2013-02-27 04:01:00,11.0,8.0,30.27,NNE,20,0.0,0.0,86,0.00,,,0.00,,2013-02-27 08:01:00,
2013-02-27 04:11:00,11.0,8.0,30.27,NNE,20,0.0,0.0,86,0.00,,,0.00,,2013-02-27 08:11:00,
2013-02-27 04:21:00,12.0,9.0,30.27,NNE,20,0.0,0.0,87,0.00,,,0.00,,2013-02-27 08:21:00,
2013-02-27 04:32:00,12.0,9.0,30.27,NNE,20,0.0,0.0,87,0.00,,,0.00,,2013-02-27 08:32:00,
2013-02-27 04:42:00,12.0,9.0,30.27,NNE,20,0.0,0.0,87,0.00,,,0.00,,2013-02-27 08:42:00,
2013-02-27 04:53:00,12.0,9.0,30.27,NNE,20,0.0,0.0,87,0.00,,,0.00,,2013-02-27 08:53:00,
2013-02-27 05:02:00,11.0,8.0,30.27,NNE,20,0.0,0.0,87,0.00,,,0.00,,2013-02-27 09:02:00,
2013-02-27 05:12:00,11.0,8.0,30.27,NNE,20,0.0,0.0,87,0.00,,,0.00,,2013-02-27 09:12:00,
2013-02-27 05:22:00,13.0,10.0,30.27,NNE,20,0.0,0.0,88,0.00,,,0.00,,2013-02-27 09:22:00,
2013-02-27 05:32:00,14.0,11.0,30.27,NNE,20,0.0,0.0,88,0.00,,,0.00,,2013-02-27 09:32:00,
2013-02-27 05:41:00,14.0,11.0,30.27,NNE,20,0.0,0.0,88,0.00,,,0.00,,2013-02-27 09:41:00,
2013-02-27 05:52:00,12.0,9.0,30.27,NNE,20,0.0,0.0,87,0.00,,,0.00,,2013-02-27 09:52:00,
2013-02-27 06:01:00,11.0,8.0,30.26,NNE,20,0.0,0.0,86,0.00,,,0.00,,2013-02-27 10:01:00,
2013-02-27 06:12:00,11.0,8.0,30.26,NNE,20,0.0,0.0,86,0.00,,,0.00,,2013-02-27 10:12:00,
2013-02-27 06:22:00,10.0,7.0,30.26,NNE,20,0.0,0.0,86,0.00,,,0.00,,2013-02-27 10:22:00,
2013-02-27 06:32:00,10.0,7.0,30.25,NNE,20,0.0,0.0,86,0.00,,,0.00,,2013-02-27 10:32:00,
2013-02-27 06:42:00,10.0,7.0,30.25,NNE,20,0.0,0.0,86,0.00,,,0.00,,2013-02-27 10:42:00,
2013-02-27 06:53:00,11.0,8.0,30.25,NNE,20,0.0,0.0,86,0.00,,,0.00,,2013-02-27 10:53:00,
2013-02-27 07:02:00,11.0,8.0,30.27,NNE,20,0.0,0.0,86,0.00,,,0.00,,2013-02-27 11:02:00,
2013-02-27 07:12:00,11.0,8.0,30.27,NNE,20,0.0,0.0,86,0.00,,,0.00,,2013-02-27 11:12:00,
2013-02-27 07:22:00,11.0,8.0,30.27,NNE,20,0.0,0.0,86,0.00,,,0.00,,2013-02-27 11:22:00,
2013-02-27 07:32:00,11.0,8.0,30.26,NNE,20,0.0,0.0,86,0.00,,,0.00,,2013-02-27 11:32:00,
2013-02-27 07:42:00,11.0,8.0,30.26,NNE,20,0.0,0.0,86,0.00,,,0.00,,2013-02-27 11:42:00,
2013-02-27 07:52:00,11.0,8.0,30.27,NNE,20,0.0,0.0,87,0.00,,,0.00,,2013-02-27 11:52:00,
2013-02-27 08:02:00,12.0,9.0,30.27,NNE,20,0.0,0.0,87,0.00,,,0.00,,2013-02-27 12:02:00,
2013-02-27 08:13:00,12.0,9.0,30.27,NNE,20,0.0,0.0,87,0.00,,,0.00,,2013-02-27 12:13:00,
2013-02-27 08:22:00,12.0,9.0,30.26,NNE,20,0.0,0.0,87,0.00,,,0.00,,2013-02-27 12:22:00,
2013-02-27 08:33:00,13.0,10.0,30.27,NNE,20,0.0,0.0,86,0.00,,,0.00,,2013-02-27 12:33:00,
2013-02-27 08:42:00,13.0,10.0,30.27,NNE,20,0.0,0.0,86,0.00,,,0.00,,2013-02-27 12:42:00,
2013-02-27 09:02:00,15.0,12.0,30.26,NNE,20,0.0,1.0,87,0.00,,,0.00,,2013-02-27 13:02:00,
2013-02-27 09:11:00,15.0,12.0,30.26,NNE,20,0.0,1.0,87,0.00,,,0.00,,2013-02-27 13:11:00,
2013-02-27 09:22:00,17.0,14.0,30.26,NNE,20,1.0,2.0,88,0.00,,,0.00,,2013-02-27 13:22:00,
2013-02-27 09:32:00,18.0,15.0,30.26,NNE,20,0.0,2.0,87,0.00,,,0.00,,2013-02-27 13:32:00,
2013-02-27 09:42:00,18.0,15.0,30.26,NNE,20,0.0,2.0,87,0.00,,,0.00,,2013-02-27 13:42:00,
2013-02-27 09:52:00,20.0,17.0,30.26,NNE,19,1.0,2.0,87,0.00,,,0.00,,2013-02-27 13:52:00,
2013-02-27 10:02:00,21.0,18.0,30.26,NNE,20,0.0,2.0,87,0.00,,,0.00,,2013-02-27 14:02:00,
2013-02-27 10:12:00,21.0,18.0,30.26,NNE,20,0.0,2.0,87,0.00,,,0.00,,2013-02-27 14:12:00,
2013-02-27 10:22:00,23.0,20.0,30.26,NNE,20,0.0,0.0,87,0.00,,,0.00,,2013-02-27 14:22:00,
2013-02-27 10:32:00,23.0,19.0,30.25,East,86,0.0,3.0,85,0.00,,,0.00,,2013-02-27 14:32:00,
2013-02-27 10:42:00,23.0,19.0,30.25,East,86,0.0,3.0,85,0.00,,,0.00,,2013-02-27 14:42:00,
2013-02-27 10:52:00,25.0,21.0,30.25,East,86,2.0,3.0,84,0.00,,,0.00,,2013-02-27 14:52:00,
2013-02-27 11:02:00,25.0,21.0,30.25,East,86,2.0,3.0,84,0.00,,,0.00,,2013-02-27 15:02:00,
2013-02-27 11:12:00,25.0,21.0,30.25,East,86,2.0,3.0,84,0.00,,,0.00,,2013-02-27 15:12:00,
2013-02-27 11:22:00,27.0,23.0,30.24,East,91,0.0,3.0,83,0.00,,,0.00,,2013-02-27 15:22:00,
2013-02-27 11:32:00,28.0,22.0,30.23,East,91,2.0,3.0,78,0.00,,,0.00,,2013-02-27 15:32:00,
2013-02-27 11:42:00,28.0,22.0,30.23,East,91,2.0,3.0,78,0.00,,,0.00,,2013-02-27 15:42:00,
2013-02-27 11:52:00,30.0,23.0,30.23,East,91,2.0,3.0,74,0.00,,,0.00,,2013-02-27 15:52:00,
2013-02-27 12:02:00,31.0,22.0,30.23,East,91,2.0,3.0,70,0.00,,,0.00,,2013-02-27 16:02:00,
2013-02-27 12:12:00,31.0,22.0,30.23,East,91,2.0,3.0,70,0.00,,,0.00,,2013-02-27 16:12:00,
2013-02-27 12:22:00,31.0,19.0,30.23,SE,132,2.0,3.0,60,0.00,,,0.00,,2013-02-27 16:22:00,
2013-02-27 12:32:00,32.0,18.0,30.22,SE,132,2.0,3.0,56,0.00,,,0.00,,2013-02-27 16:32:00,
2013-02-27 12:42:00,32.0,18.0,30.22,SE,132,2.0,3.0,56,0.00,,,0.00,,2013-02-27 16:42:00,
2013-02-27 12:52:00,32.0,17.0,30.22,SE,130,2.0,3.0,53,0.00,,,0.00,,2013-02-27 16:52:00,
2013-02-27 13:02:00,33.0,18.0,30.21,SE,129,1.0,3.0,54,0.00,,,0.00,,2013-02-27 17:02:00,
2013-02-27 13:11:00,33.0,18.0,30.21,SE,129,1.0,3.0,54,0.00,,,0.00,,2013-02-27 17:11:00,
2013-02-27 13:21:00,34.0,21.0,30.20,SE,129,2.0,3.0,58,0.00,,,0.00,,2013-02-27 17:21:00,
2013-02-27 13:32:00,34.0,19.0,30.19,SE,129,1.0,3.0,53,0.00,,,0.00,,2013-02-27 17:32:00,
2013-02-27 13:42:00,34.0,19.0,30.19,SE,129,1.0,3.0,53,0.00,,,0.00,,2013-02-27 17:42:00,
2013-02-27 13:52:00,35.0,18.0,30.18,SE,129,2.0,3.0,49,0.00,,,0.00,,2013-02-27 17:52:00,
2013-02-27 14:02:00,35.0,18.0,30.17,SE,129,2.0,3.0,50,0.00,,,0.00,,2013-02-27 18:02:00,
2013-02-27 14:11:00,35.0,18.0,30.17,SE,129,2.0,3.0,50,0.00,,,0.00,,2013-02-27 18:11:00,
2013-02-27 14:22:00,35.0,18.0,30.16,SE,129,2.0,3.0,49,0.00,,,0.00,,2013-02-27 18:22:00,
2013-02-27 14:32:00,36.0,20.0,30.16,SE,129,2.0,3.0,51,0.00,,,0.00,,2013-02-27 18:32:00,
2013-02-27 14:42:00,36.0,20.0,30.16,SE,129,2.0,3.0,51,0.00,,,0.00,,2013-02-27 18:42:00,
2013-02-27 14:52:00,36.0,19.0,30.16,SE,129,2.0,3.0,50,0.00,,,0.00,,2013-02-27 18:52:00,
2013-02-27 15:01:00,36.0,19.0,30.16,SE,129,2.0,3.0,49,0.00,,,0.00,,2013-02-27 19:01:00,
2013-02-27 15:12:00,36.0,19.0,30.16,SE,129,2.0,3.0,49,0.00,,,0.00,,2013-02-27 19:12:00,
2013-02-27 15:21:00,36.0,19.0,30.16,SE,129,0.0,3.0,49,0.00,,,0.00,,2013-02-27 19:21:00,
2013-02-27 15:32:00,36.0,19.0,30.16,East,86,3.0,6.0,49,0.00,,,0.00,,2013-02-27 19:32:00,
2013-02-27 15:42:00,36.0,19.0,30.16,East,86,3.0,6.0,49,0.00,,,0.00,,2013-02-27 19:42:00,
2013-02-27 15:52:00,35.0,20.0,30.15,East,93,3.0,7.0,53,0.00,,,0.00,,2013-02-27 19:52:00,
2013-02-27 16:01:00,34.0,19.0,30.15,East,96,3.0,5.0,54,0.00,,,0.00,,2013-02-27 20:01:00,
2013-02-27 16:12:00,34.0,19.0,30.15,East,96,3.0,5.0,54,0.00,,,0.00,,2013-02-27 20:12:00,
2013-02-27 16:22:00,34.0,19.0,30.15,East,90,2.0,6.0,54,0.00,,,0.00,,2013-02-27 20:22:00,
2013-02-27 16:32:00,34.0,19.0,30.14,East,80,2.0,3.0,54,0.00,,,0.00,,2013-02-27 20:32:00,
2013-02-27 16:42:00,34.0,19.0,30.14,East,80,2.0,3.0,54,0.00,,,0.00,,2013-02-27 20:42:00,
2013-02-27 16:52:00,33.0,17.0,30.14,East,80,2.0,5.0,51,0.00,,,0.00,,2013-02-27 20:52:00,
2013-02-27 17:02:00,33.0,17.0,30.14,ENE,76,1.0,3.0,52,0.00,,,0.00,,2013-02-27 21:02:00,
2013-02-27 17:11:00,33.0,17.0,30.14,ENE,76,1.0,3.0,52,0.00,,,0.00,,2013-02-27 21:11:00,
2013-02-27 17:22:00,33.0,18.0,30.13,ENE,75,1.0,3.0,53,0.00,,,0.00,,2013-02-27 21:22:00,
2013-02-27 17:32:00,32.0,17.0,30.13,NNE,29,2.0,5.0,53,0.00,,,0.00,,2013-02-27 21:32:00,
2013-02-27 17:42:00,32.0,17.0,30.13,NNE,29,2.0,5.0,53,0.00,,,0.00,,2013-02-27 21:42:00,
2013-02-27 17:52:00,31.0,16.0,30.12,NNE,29,3.0,5.0,54,0.00,,,0.00,,2013-02-27 21:52:00,
2013-02-27 18:01:00,31.0,16.0,30.12,NNE,22,2.0,3.0,54,0.00,,,0.00,,2013-02-27 22:01:00,
2013-02-27 18:11:00,31.0,16.0,30.12,NNE,22,2.0,3.0,54,0.00,,,0.00,,2013-02-27 22:11:00,
2013-02-27 18:21:00,30.0,17.0,30.12,ESE,114,2.0,5.0,59,0.00,,,0.00,,2013-02-27 22:21:00,
2013-02-27 18:32:00,28.0,18.0,30.12,SE,130,2.0,5.0,65,0.00,,,0.00,,2013-02-27 22:32:00,
2013-02-27 18:42:00,28.0,18.0,30.12,SE,130,2.0,5.0,65,0.00,,,0.00,,2013-02-27 22:42:00,
2013-02-27 18:52:00,27.0,18.0,30.11,SE,127,1.0,3.0,68,0.00,,,0.00,,2013-02-27 22:52:00,
2013-02-27 19:01:00,26.0,18.0,30.11,SE,133,2.0,3.0,70,0.00,,,0.00,,2013-02-27 23:01:00,
2013-02-27 19:11:00,26.0,18.0,30.11,SE,133,2.0,3.0,70,0.00,,,0.00,,2013-02-27 23:11:00,
2013-02-27 19:21:00,25.0,17.0,30.12,SE,134,1.0,3.0,71,0.00,,,0.00,,2013-02-27 23:21:00,
2013-02-27 19:32:00,25.0,17.0,30.11,SE,134,1.0,2.0,72,0.00,,,0.00,,2013-02-27 23:32:00,
2013-02-27 19:42:00,25.0,17.0,30.11,SE,134,1.0,2.0,72,0.00,,,0.00,,2013-02-27 23:42:00,
2013-02-27 19:53:00,25.0,18.0,30.12,SE,134,0.0,1.0,73,0.00,,,0.00,,2013-02-27 23:53:00,
2013-02-27 20:02:00,24.0,17.0,30.11,SE,134,0.0,2.0,74,0.00,,,0.00,,2013-02-28 00:02:00,
2013-02-27 20:12:00,24.0,17.0,30.11,SE,134,0.0,2.0,74,0.00,,,0.00,,2013-02-28 00:12:00,
2013-02-27 20:21:00,23.0,17.0,30.11,SE,134,0.0,0.0,76,0.00,,,0.00,,2013-02-28 00:21:00,
2013-02-27 20:32:00,23.0,17.0,30.11,SE,134,0.0,0.0,78,0.00,,,0.00,,2013-02-28 00:32:00,
2013-02-27 20:42:00,23.0,17.0,30.11,SE,134,0.0,0.0,78,0.00,,,0.00,,2013-02-28 00:42:00,
2013-02-27 20:52:00,23.0,17.0,30.11,ESE,123,1.0,3.0,79,0.00,,,0.00,,2013-02-28 00:52:00,
2013-02-27 21:01:00,22.0,17.0,30.11,ESE,123,0.0,1.0,80,0.00,,,0.00,,2013-02-28 01:01:00,
2013-02-27 21:11:00,22.0,17.0,30.11,ESE,123,0.0,1.0,80,0.00,,,0.00,,2013-02-28 01:11:00,
2013-02-27 21:22:00,22.0,17.0,30.10,ESE,113,1.0,2.0,81,0.00,,,0.00,,2013-02-28 01:22:00,
2013-02-27 21:32:00,21.0,16.0,30.10,ENE,57,1.0,2.0,80,0.00,,,0.00,,2013-02-28 01:32:00,
2013-02-27 21:42:00,21.0,16.0,30.10,ENE,57,1.0,2.0,80,0.00,,,0.00,,2013-02-28 01:42:00,
2013-02-27 21:52:00,21.0,15.0,30.09,NNE,32,1.0,3.0,78,0.00,,,0.00,,2013-02-28 01:52:00,
2013-02-27 22:01:00,21.0,15.0,30.09,NNE,24,2.0,3.0,78,0.00,,,0.00,,2013-02-28 02:01:00,
2013-02-27 22:11:00,21.0,15.0,30.09,NNE,24,2.0,3.0,78,0.00,,,0.00,,2013-02-28 02:11:00,
2013-02-27 22:22:00,21.0,16.0,30.09,NNE,24,3.0,7.0,80,0.00,,,0.00,,2013-02-28 02:22:00,
2013-02-27 22:32:00,20.0,15.0,30.09,NNE,17,4.0,7.0,82,0.00,,,0.00,,2013-02-28 02:32:00,
2013-02-27 22:42:00,20.0,15.0,30.09,NNE,17,4.0,7.0,82,0.00,,,0.00,,2013-02-28 02:42:00,
2013-02-27 22:52:00,20.0,15.0,30.09,NNE,17,4.0,7.0,82,0.00,,,0.00,,2013-02-28 02:52:00,
2013-02-27 23:01:00,20.0,16.0,30.09,NNE,18,2.0,5.0,86,0.00,,,0.00,,2013-02-28 03:01:00,
2013-02-27 23:11:00,20.0,16.0,30.09,NNE,18,2.0,5.0,86,0.00,,,0.00,,2013-02-28 03:11:00,
2013-02-27 23:21:00,20.0,17.0,30.08,NNE,17,2.0,3.0,87,0.00,,,0.00,,2013-02-28 03:21:00,
2013-02-27 23:32:00,20.0,17.0,30.07,NE,36,3.0,10.0,89,0.00,,,0.00,,2013-02-28 03:32:00,
2013-02-27 23:42:00,20.0,17.0,30.07,NE,36,3.0,10.0,89,0.00,,,0.00,,2013-02-28 03:42:00,
2013-02-27 23:52:00,20.0,18.0,30.07,NNE,30,5.0,9.0,90,0.00,,,0.00,,2013-02-28 03:52:00,